Weather History for Willmar, MN

Change the Weather History Date:

Friday, July 5, 2013

  Actual Average (KLJF) Record (KLJF)
Temperature  
Mean Temperature 81 °F -  
Max Temperature 91 °F 84 °F 98 °F (1988)
Min Temperature 71 °F 60 °F 45 °F (1972)
Cooling Degree Days 16    
Growing Degree Days 31 (Base 50)    
Moisture  
Dew Point 56 °F    
Average Humidity 43    
Maximum Humidity 53    
Minimum Humidity 29    
Precipitation  
Precipitation 0.00 in - - ()
Sea Level Pressure  
Sea Level Pressure 29.82 in    
Wind  
Wind Speed 8 mph (South)    
Max Wind Speed 18 mph    
Max Gust Speed 26 mph    
Visibility 10 miles    
Events      
Averages and records for this station are not official NWS values.
T = Trace of Precipitation, MM = Missing Value Source: NWS Daily Summary

Daily Weather History Graph

Daily Weather History Graph

Search for Another Location

Airport:

Trip Planner

Search our weather history database for the weather conditions in past years. The results will help you decide how hot, cold, wet, or windy it might be!

Date:

Astronomy

Jul. 05, 2013 Rise Set
Actual Time 5:39 AM CDT 9:10 PM CDT
Civil Twilight 5:02 AM CDT 9:47 PM CDT
Nautical Twilight 4:14 AM CDT 10:35 PM CDT
Astronomical Twilight 3:10 AM CDT 11:38 PM CDT
Moon 3:42 AM CDT (7/5) 7:03 PM CDT (7/5)
Length of Visible Light 16h 44m
Length of Day
15h 30m
Waning Crescent, 6% of the Moon is Illuminated
Jul 5
Waning Crescent
Jul 8
New
Jul 15
First Quarter
Jul 22
Full
Jul 29
Last Quarter

Hourly Weather History & Observations

Time (CDT) Temp. Heat Index Dew Point Humidity Pressure Visibility Wind Dir Wind Speed Gust Speed Precip Events Conditions
12:15 AM 78.8 °F - 51.8 °F 39% 29.86 in 10.0 mi SSE 6.9 mph - N/A   Clear
12:36 AM 77.0 °F - 53.6 °F 44% 29.86 in 10.0 mi SSE 5.8 mph - N/A   Clear
12:55 AM 77.0 °F - 53.6 °F 44% 29.85 in 10.0 mi SSE 9.2 mph - N/A   Clear
1:15 AM 75.2 °F - 53.6 °F 47% 29.85 in 10.0 mi SSE 8.1 mph - N/A   Clear
1:35 AM 75.2 °F - 53.6 °F 47% 29.85 in 10.0 mi SSE 6.9 mph - N/A   Clear
1:55 AM 75.2 °F - 53.6 °F 47% 29.85 in 10.0 mi SSE 8.1 mph - N/A   Clear
2:15 AM 73.4 °F - 53.6 °F 50% 29.85 in 10.0 mi SSE 8.1 mph - N/A   Clear
2:35 AM 73.4 °F - 53.6 °F 50% 29.86 in 10.0 mi SSE 6.9 mph - N/A   Clear
2:55 AM 73.4 °F - 53.6 °F 50% 29.86 in 10.0 mi SSE 9.2 mph - N/A   Clear
3:15 AM 73.4 °F - 53.6 °F 50% 29.86 in 10.0 mi SSE 9.2 mph - N/A   Clear
3:35 AM 71.6 °F - 53.6 °F 53% 29.86 in 10.0 mi SSE 8.1 mph - N/A   Clear
3:55 AM 71.6 °F - 53.6 °F 53% 29.86 in 10.0 mi SSE 9.2 mph - N/A   Clear
4:15 AM 71.6 °F - 53.6 °F 53% 29.85 in 10.0 mi SSE 10.4 mph - N/A   Clear
4:35 AM 71.6 °F - 53.6 °F 53% 29.85 in 10.0 mi SSE 9.2 mph - N/A   Clear
4:56 AM 71.6 °F - 53.6 °F 53% 29.84 in 10.0 mi SSE 9.2 mph - N/A   Clear
5:15 AM 71.6 °F - 53.6 °F 53% 29.84 in 10.0 mi SSE 9.2 mph - N/A   Clear
5:35 AM 71.6 °F - 53.6 °F 53% 29.84 in 10.0 mi SSE 10.4 mph 16.1 mph N/A   Clear
5:56 AM 71.6 °F - 53.6 °F 53% 29.83 in 10.0 mi SSE 9.2 mph 16.1 mph N/A   Clear
6:15 AM 71.6 °F - 53.6 °F 53% 29.83 in 10.0 mi SSE 9.2 mph - N/A   Clear
6:35 AM 71.6 °F - 53.6 °F 53% 29.83 in 10.0 mi SSE 10.4 mph 16.1 mph N/A   Clear
6:56 AM 73.4 °F - 55.4 °F 53% 29.83 in 10.0 mi SSE 5.8 mph - N/A   Clear
7:15 AM 73.4 °F - 53.6 °F 50% 29.83 in 10.0 mi SSE 8.1 mph - N/A   Clear
7:35 AM 73.4 °F - 53.6 °F 50% 29.83 in 10.0 mi South 4.6 mph - N/A   Clear
7:55 AM 75.2 °F - 55.4 °F 50% 29.83 in 10.0 mi South 8.1 mph - N/A   Clear
8:15 AM 75.2 °F - 55.4 °F 50% 29.84 in 10.0 mi South 6.9 mph - N/A   Clear
8:35 AM 75.2 °F - 55.4 °F 50% 29.84 in 10.0 mi SSE 9.2 mph - N/A   Clear
8:55 AM 75.2 °F - 55.4 °F 50% 29.83 in 10.0 mi SSE 10.4 mph 18.4 mph N/A   Clear
9:16 AM 75.2 °F - 55.4 °F 50% 29.83 in 10.0 mi South 5.8 mph - N/A   Clear
9:35 AM 77.0 °F - 55.4 °F 47% 29.83 in 10.0 mi SSE 6.9 mph - N/A   Clear
9:55 AM 77.0 °F - 55.4 °F 47% 29.83 in 10.0 mi South 6.9 mph - N/A   Clear
10:15 AM 80.6 °F 80.8 °F 57.2 °F 45% 29.83 in 10.0 mi South 6.9 mph - N/A   Clear
10:35 AM 80.6 °F 80.8 °F 57.2 °F 45% 29.83 in 10.0 mi South 10.4 mph 16.1 mph N/A   Clear
10:55 AM 80.6 °F 80.8 °F 57.2 °F 45% 29.82 in 10.0 mi South 5.8 mph 17.3 mph N/A   Clear
11:15 AM 80.6 °F 80.8 °F 57.2 °F 45% 29.82 in 10.0 mi SSW 8.1 mph - N/A   Clear
11:36 AM 80.6 °F 80.8 °F 57.2 °F 45% 29.82 in 10.0 mi South 6.9 mph 18.4 mph N/A   Clear
11:55 AM 82.4 °F 82.0 °F 57.2 °F 42% 29.82 in 10.0 mi South 8.1 mph - N/A   Clear
12:15 PM 84.2 °F 83.5 °F 57.2 °F 40% 29.82 in 10.0 mi South 10.4 mph - N/A   Clear
12:35 PM 84.2 °F 83.8 °F 59.0 °F 42% 29.82 in 10.0 mi South 9.2 mph - N/A   Clear
12:56 PM 84.2 °F 83.5 °F 57.2 °F 40% 29.81 in 10.0 mi South 6.9 mph - N/A   Clear
1:15 PM 86.0 °F 85.4 °F 59.0 °F 40% 29.81 in 10.0 mi South 8.1 mph - N/A   Clear
1:35 PM 87.8 °F 87.1 °F 59.0 °F 38% 29.80 in 10.0 mi South 4.6 mph - N/A   Clear
1:56 PM 87.8 °F 86.5 °F 57.2 °F 35% 29.81 in 10.0 mi South 9.2 mph 17.3 mph N/A   Clear
2:15 PM 89.6 °F 88.1 °F 57.2 °F 33% 29.80 in 10.0 mi South 9.2 mph - N/A   Unknown
2:35 PM 89.6 °F 87.7 °F 55.4 °F 31% 29.80 in 10.0 mi SW 12.7 mph 19.6 mph N/A   Unknown
2:56 PM 89.6 °F 87.7 °F 55.4 °F 31% 29.80 in 10.0 mi SSW 6.9 mph 20.7 mph N/A   Unknown
3:15 PM 89.6 °F 87.7 °F 55.4 °F 31% 29.80 in 10.0 mi SW 16.1 mph 21.9 mph N/A   Unknown
3:35 PM 89.6 °F 87.7 °F 55.4 °F 31% 29.80 in 10.0 mi SSW 12.7 mph 21.9 mph N/A   Unknown
3:56 PM 91.4 °F 89.4 °F 55.4 °F 29% 29.79 in 10.0 mi SW 12.7 mph 26.5 mph N/A   Unknown
4:15 PM 91.4 °F 89.4 °F 55.4 °F 29% 29.79 in 10.0 mi SW 12.7 mph 21.9 mph N/A   Unknown
4:35 PM 91.4 °F 89.4 °F 55.4 °F 29% 29.79 in 10.0 mi SSW 12.7 mph 24.2 mph N/A   Unknown
4:56 PM 91.4 °F 89.4 °F 55.4 °F 29% 29.79 in 10.0 mi SW 17.3 mph 24.2 mph N/A   Unknown
5:15 PM 91.4 °F 89.4 °F 55.4 °F 29% 29.79 in 7.0 mi SW 18.4 mph - N/A   Unknown
5:35 PM 91.4 °F 89.4 °F 55.4 °F 29% 29.78 in 10.0 mi SW 9.2 mph 20.7 mph N/A   Unknown
5:56 PM 91.4 °F 89.9 °F 57.2 °F 31% 29.78 in 10.0 mi SW 17.3 mph 21.9 mph N/A   Unknown
6:15 PM 91.4 °F 89.9 °F 57.2 °F 31% 29.78 in 10.0 mi SW 13.8 mph 19.6 mph N/A   Unknown
6:35 PM 89.6 °F 88.1 °F 57.2 °F 33% 29.78 in 10.0 mi SW 16.1 mph - N/A   Unknown
6:56 PM 89.6 °F 88.1 °F 57.2 °F 33% 29.79 in 10.0 mi SSW 8.1 mph - N/A   Unknown
7:15 PM 89.6 °F 88.9 °F 59.0 °F 36% 29.78 in 10.0 mi SSW 5.8 mph - N/A   Unknown
7:35 PM 87.8 °F 87.6 °F 60.8 °F 40% 29.78 in 10.0 mi SSW 3.5 mph - N/A   Unknown
7:56 PM 87.8 °F 87.6 °F 60.8 °F 40% 29.79 in 10.0 mi SSW 3.5 mph - N/A   Unknown
8:15 PM 86.0 °F 86.1 °F 60.8 °F 43% 29.79 in 10.0 mi South 3.5 mph - N/A   Clear
8:35 PM 84.2 °F 84.4 °F 60.8 °F 45% 29.79 in 10.0 mi Calm Calm - N/A   Scattered Clouds
8:55 PM 84.2 °F 83.8 °F 59.0 °F 42% 29.79 in 10.0 mi SSW 4.6 mph - N/A   Scattered Clouds
9:15 PM 84.2 °F 83.8 °F 59.0 °F 42% 29.80 in 10.0 mi SSW 4.6 mph - N/A   Scattered Clouds
9:35 PM 84.2 °F 83.8 °F 59.0 °F 42% 29.80 in 10.0 mi Calm Calm - N/A   Scattered Clouds
9:55 PM 82.4 °F 82.5 °F 59.0 °F 45% 29.81 in 10.0 mi SSW 3.5 mph - N/A   Clear
10:15 PM 82.4 °F 82.9 °F 60.8 °F 48% 29.82 in 10.0 mi SSW 4.6 mph - N/A   Clear
10:35 PM 82.4 °F 82.9 °F 60.8 °F 48% 29.82 in 10.0 mi Calm Calm - N/A   Scattered Clouds
10:55 PM 80.6 °F 81.5 °F 60.8 °F 51% 29.83 in 10.0 mi South 3.5 mph - N/A   Clear
11:15 PM 80.6 °F 81.5 °F 60.8 °F 51% 29.83 in 10.0 mi South 4.6 mph - N/A   Clear
11:35 PM 80.6 °F 81.5 °F 60.8 °F 51% 29.84 in 10.0 mi South 4.6 mph - N/A   Clear
11:55 PM 80.6 °F 81.5 °F 60.8 °F 51% 29.84 in 10.0 mi SSW 5.8 mph - N/A   Clear